[[{"header":{"parameterUnit":"m.s-1","parameterCategory":1,"la1":30.2991,"la2":30.254,"lo1":-89.0895,"lo2":-89.0444,"dy":0.0017,"dx":0.0017,"nx":28,"ny":28,"refTime":"2025-01-29T09:00:00:Z","depth":0,"parameterNumber":2,"parameterNumberName":"U-component_of_WINDS"},"data":[0,0,0,0,0,0,0,0,0,0,0,0,0,0,0,0,0,0,0,0,0,0,0,0,0,0,0,0,0,0,0,0,0,0,0,0,0,0,0,0,0,0,0,0,0,0,0,0,0,0,0,0,0,0,0,0,0,0,-3.0957,-3.0957,0,-3.0988,-3.0988,-3.0988,-3.0926,-3.0924,-3.0922,-3.092,-3.0953,-3.0955,-3.0958,0,0,0,0,0,0,0,0,0,0,0,0,0,-3.0844,-3.0847,-3.0956,-3.0957,-3.0957,-3.0988,-3.0988,-3.0988,-3.0926,-3.0924,-3.0921,-3.0919,-3.0952,-3.0955,-3.0958,0,0,0,0,0,0,0,0,0,0,0,0,0,-3.0886,-3.0847,-3.0956,-3.093,-3.0928,-3.0987,-3.0988,-3.0988,-3.0927,-3.0924,-3.0921,-3.0918,-3.0951,-3.0955,-3.0959,-3.1046,0,0,-3.0971,-3.0973,0,0,0,0,0,0,0,0,-3.0884,-3.089,-3.0933,-3.0932,-3.093,-3.095,-3.096,-3.1008,-3.0928,-3.0927,-3.092,-3.0916,-3.0954,-3.0958,-3.097,-3.1047,-3.1049,-3.0972,-3.0974,-3.0976,-3.0977,0,0,0,0,0,0,0,-3.0881,-3.0888,-3.0969,-3.0934,-3.0932,-3.0917,-3.0919,-3.0969,-3.0958,-3.0927,-3.0923,-3.0927,-3.0952,-3.0967,-3.0971,-3.1049,-3.0972,-3.0975,-3.0978,-3.0979,-3.1199,-3.1202,0,0,0,0,0,0,-3.0881,-3.0886,-3.0968,-3.097,-3.0899,-3.0921,-3.0924,-3.0946,-3.0957,-3.0955,-3.093,-3.0924,-3.0961,-3.0966,-3.0972,-3.1074,-3.0976,-3.098,-3.0982,-3.1196,-3.12,-3.1203,0,0,0,0,0,0,-3.0879,-3.0889,-3.0966,-3.0927,-3.0936,-3.0926,-3.0952,-3.0949,-3.0962,-3.0959,-3.0956,-3.0946,-3.0959,-3.0966,-3.1028,-3.1074,-3.0982,-3.0986,-3.1192,-3.1197,-3.1202,-3.1279,0,0,0,0,0,0,-3.0876,-3.0889,-3.0921,-3.0928,-3.0938,-3.1022,-3.0955,-3.0951,-3.097,-3.0963,-3.0973,-3.0972,-3.0957,-3.1022,-3.1032,-3.1078,-3.0989,-3.1188,-3.1194,-3.12,-3.1273,-3.1286,-3.1298,0,0,0,0,0,-3.0872,-3.0942,-3.0923,-3.0933,-3.0979,-3.1025,-3.103,-3.1011,-3.0974,-3.1007,-3.1004,-3.0972,-3.1068,-3.1029,-3.1039,-3.1088,-3.1184,-3.1192,-3.1199,-3.1267,-3.1284,-3.1298,0,0,0,0,0,0,-3.0941,-3.0942,-3.0922,-3.0996,-3.1011,-3.1014,-3.1055,-3.1029,-3.1055,-3.1048,-3.1023,-3.1026,-3.1093,-3.1096,-3.1053,-3.1173,-3.112,-3.113,-3.1167,-3.1183,-3.1196,-3.1193,-3.0992,0,0,0,0,0,-3.0965,-3.1002,-3.1001,-3.1067,-3.1075,-3.1064,-3.1084,-3.1067,-3.1082,-3.1088,-3.109,-3.1106,-3.1139,-3.1162,-3.1192,-3.1273,-3.1275,-3.1312,-3.1325,-3.1335,-3.1344,-3.1387,-3.1404,-3.1228,-3.1228,-3.1228,0,0,-3.1014,-3.102,-3.1045,-3.1081,-3.109,-3.113,-3.107,-3.1114,-3.1143,-3.1095,-3.1153,-3.1155,-3.1171,-3.1243,-3.1275,-3.1248,-3.1393,-3.1345,-3.1353,-3.1356,-3.1397,-3.1413,-3.1428,-3.1233,-3.1232,-3.1231,0,0,-3.1124,-3.1133,-3.1188,-3.1199,-3.1214,-3.1206,-3.122,-3.1227,-3.1227,-3.1285,-3.125,-3.1284,-3.1343,-3.1355,-3.1369,-3.1485,-3.1456,-3.1496,-3.1563,-3.1605,-3.1619,-3.1631,-3.1672,-3.1687,-3.1505,-3.1505,-3.1505,0,-3.1184,-3.1241,-3.1219,-3.1266,-3.1283,-3.1241,-3.1297,-3.1309,-3.1334,-3.1347,-3.1317,-3.1389,-3.1397,-3.1471,-3.1499,-3.1512,-3.1527,-3.1494,-3.1619,-3.1631,-3.1642,-3.168,-3.1696,-3.151,-3.1509,-3.1509,-3.1508,0,-3.1314,-3.1354,-3.1397,-3.1422,-3.1444,-3.1495,-3.1481,-3.1506,-3.1488,-3.1484,-3.1544,-3.1552,-3.1583,-3.16,-3.1583,-3.1672,-3.1655,-3.1623,-3.1569,-3.1663,-3.1699,-3.1714,-3.1517,-3.1515,-3.1513,-3.1512,0,0,-3.1467,-3.1479,-3.1495,-3.1506,-3.152,-3.1551,-3.1601,-3.1632,-3.1653,-3.1672,-3.1713,-3.1764,-3.1734,-3.175,-3.1734,-3.1772,-3.1863,-3.1734,-3.1734,-3.1757,-3.1961,-3.1985,-3.2003,-3.1844,-3.1847,-3.1849,-3.196,0,-3.1575,-3.166,-3.1642,-3.1725,-3.1762,-3.1724,-3.1767,-3.1781,-3.1778,-3.181,-3.1807,-3.1843,-3.1801,-3.181,-3.1846,-3.1844,-3.1903,-3.1836,-3.1882,-3.1884,-3.1878,-3.2021,-3.2047,-3.215,-3.1974,-3.1976,-3.1978,0,-3.1713,-3.1737,-3.1824,-3.1832,-3.1847,-3.1886,-3.1913,-3.1944,-3.1959,-3.1954,-3.1973,-3.195,-3.2,-3.1946,-3.2014,-3.1969,-3.1987,-3.1989,-3.1993,-3.1996,-3.1936,-3.2027,-3.2183,-3.2198,-3.2,-3.1998,-3.1996,0,-3.1815,-3.1869,-3.1928,-3.1939,-3.195,-3.1979,-3.1985,-3.1997,-3.2017,-3.204,-3.2053,-3.2083,-3.2099,-3.2122,-3.2108,-3.2071,-3.2179,-3.2124,-3.2176,-3.2177,-3.22,-3.2198,-3.236,-3.2213,-3.2213,-3.2213,-3.2212,0,-3.1938,-3.1992,-3.1974,-3.201,-3.207,-3.205,-3.211,-3.2112,-3.2123,-3.2159,-3.2128,-3.2163,-3.2143,-3.2176,-3.2166,-3.2224,-3.2231,-3.2229,-3.2226,-3.2232,-3.2232,-3.2242,-3.2234,-3.2217,-3.2216,-3.2215,-3.2214,0,-3.2061,-3.2052,-3.2113,-3.2119,-3.2122,-3.2166,-3.2172,-3.2206,-3.2201,-3.2247,-3.2257,-3.225,-3.2288,-3.2277,-3.2317,-3.231,-3.2383,-3.2371,-3.2378,-3.2375,-3.2427,-3.2422,-3.26,-3.2622,-3.2462,-3.2464,-3.2465,0,-3.214,-3.2181,-3.2192,-3.2213,-3.2222,-3.2258,-3.2277,-3.2259,-3.2281,-3.2302,-3.2334,-3.2369,-3.2395,-3.2457,-3.2456,-3.2487,-3.2475,-3.2535,-3.2479,-3.2484,-3.2475,-3.2472,-3.2476,-3.2546,-3.2548,-3.2549,-3.2551,0,-3.228,-3.2273,-3.2303,-3.2331,-3.2356,-3.2378,-3.2396,-3.2416,-3.2399,-3.2426,-3.2464,-3.2485,-3.2527,-3.2562,-3.259,-3.2597,-3.2571,-3.2569,-3.2582,-3.2588,-3.259,-3.2589,-3.2408,-3.2564,-3.2563,-3.2562,-3.2561,-3.2561,-3.2382,-3.2417,-3.243,-3.2464,-3.2477,-3.2495,-3.2527,-3.2527,-3.2558,-3.259,-3.2578,-3.2622,-3.2636,-3.2672,-3.2683,-3.2717,-3.2694,-3.2714,-3.2718,-3.2723,-3.273,-3.2586,-3.2722,-3.2722,-3.2721,-3.2721,-3.2721,0,-3.252,-3.2527,-3.2559,-3.2586,-3.2613,-3.2587,-3.2607,-3.2631,-3.267,-3.2686,-3.2713,-3.2757,-3.2791,-3.2793,-3.2825,-3.2852,-3.2841,-3.2861,-3.2858,-3.286,-3.2749,-3.2733,-3.2869,-3.2869,-3.2869,-3.2869,-3.2869,-3.2869,-3.2595,-3.2652,-3.2647,-3.271,-3.2716,-3.2758,-3.2772,-3.2789,-3.2801,-3.2852,-3.288,-3.2881,-3.2891,-3.2924,-3.2954,-3.2954,-3.2967,-3.2991,-3.2986,-3.2882,-3.2868,-3.2853,-3.2839,-3.2994,-3.2994,-3.3094,-3.3095,-3.3096]},{"header":{"parameterUnit":"m.s-1","parameterCategory":1,"la1":30.2991,"la2":30.254,"lo1":-89.0895,"lo2":-89.0444,"dy":0.0017,"dx":0.0017,"nx":28,"ny":28,"refTime":"2025-01-29T09:00:00:Z","depth":0,"parameterNumber":3,"parameterNumberName":"V-component_of_WINDS"},"data":[0,0,0,0,0,0,0,0,0,0,0,0,0,0,0,0,0,0,0,0,0,0,0,0,0,0,0,0,0,0,0,0,0,0,0,0,0,0,0,0,0,0,0,0,0,0,0,0,0,0,0,0,0,0,0,0,0,0,0.7365,0.7366,0,0.7434,0.7435,0.7435,0.7468,0.7468,0.7468,0.7468,0.7538,0.754,0.7542,0,0,0,0,0,0,0,0,0,0,0,0,0,0.7265,0.7266,0.7365,0.7366,0.7367,0.7434,0.7435,0.7436,0.7468,0.7468,0.7468,0.7468,0.7537,0.754,0.7542,0,0,0,0,0,0,0,0,0,0,0,0,0,0.7318,0.7267,0.7365,0.7391,0.7394,0.7433,0.7435,0.7436,0.7468,0.7468,0.7468,0.7468,0.7537,0.7539,0.7542,0.7561,0,0,0.7551,0.7552,0,0,0,0,0,0,0,0,0.7315,0.7322,0.7387,0.739,0.7393,0.7442,0.7425,0.7478,0.7468,0.744,0.7468,0.7468,0.7506,0.7511,0.7524,0.7564,0.7567,0.7551,0.7553,0.7554,0.7555,0,0,0,0,0,0,0,0.7311,0.7319,0.7392,0.7388,0.7391,0.74,0.7408,0.7435,0.7472,0.7442,0.7445,0.7453,0.7508,0.7522,0.7526,0.7568,0.7551,0.7553,0.7555,0.7556,0.7628,0.7628,0,0,0,0,0,0,0.7303,0.7316,0.739,0.7395,0.7353,0.7402,0.741,0.7427,0.7472,0.7479,0.7453,0.7454,0.7517,0.7523,0.7529,0.7555,0.7554,0.7557,0.7558,0.7628,0.7628,0.7628,0,0,0,0,0,0,0.7301,0.731,0.7388,0.7356,0.7367,0.7404,0.7422,0.7428,0.7442,0.748,0.7487,0.746,0.7517,0.7525,0.7553,0.7558,0.7558,0.756,0.7628,0.7628,0.7628,0.7606,0,0,0,0,0,0,0.7298,0.7309,0.7316,0.7356,0.7368,0.741,0.7422,0.7429,0.7446,0.7449,0.7488,0.7495,0.7518,0.7549,0.7556,0.7562,0.7563,0.7627,0.7628,0.7628,0.7607,0.7606,0.7605,0,0,0,0,0,0.7294,0.7306,0.7316,0.7324,0.7377,0.741,0.7417,0.7443,0.7447,0.7454,0.7479,0.7494,0.7556,0.7551,0.7559,0.7566,0.7627,0.7628,0.7628,0.7607,0.7606,0.7605,0,0,0,0,0,0,0.7265,0.7312,0.7323,0.7348,0.7375,0.7415,0.7426,0.7441,0.7467,0.7468,0.7499,0.7508,0.7533,0.7553,0.7546,0.7588,0.7593,0.7595,0.7574,0.7573,0.7573,0.7568,0.7565,0,0,0,0,0,0.7262,0.7284,0.7324,0.7342,0.7355,0.7388,0.7403,0.7421,0.745,0.7462,0.7488,0.7516,0.7542,0.7559,0.7585,0.761,0.762,0.7619,0.7618,0.7617,0.7619,0.7635,0.7635,0.763,0.763,0.763,0,0,0.7255,0.7283,0.7295,0.7337,0.736,0.7383,0.7397,0.7421,0.7439,0.7465,0.7494,0.7514,0.7548,0.7575,0.7588,0.7591,0.7622,0.7617,0.7616,0.7619,0.7635,0.7636,0.7636,0.763,0.763,0.763,0,0,0.7254,0.7277,0.7296,0.7319,0.7353,0.7376,0.738,0.7419,0.7434,0.7463,0.7484,0.7506,0.7549,0.7573,0.7591,0.7601,0.7615,0.7608,0.7604,0.7619,0.762,0.762,0.7625,0.7627,0.761,0.7609,0.7609,0,0.7241,0.7276,0.7304,0.7327,0.7345,0.7371,0.7391,0.7411,0.7453,0.7465,0.7469,0.7526,0.755,0.7583,0.7586,0.7599,0.7606,0.7604,0.7617,0.7618,0.7619,0.7624,0.7626,0.7608,0.7609,0.7609,0.7609,0,0.726,0.7284,0.7295,0.7335,0.7355,0.7376,0.7407,0.7424,0.744,0.7462,0.7492,0.7522,0.7556,0.7565,0.7581,0.7601,0.7603,0.7611,0.7617,0.7618,0.7624,0.7626,0.7607,0.7607,0.7608,0.7608,0,0,0.7242,0.7298,0.7301,0.732,0.7361,0.7381,0.7404,0.7437,0.7451,0.7479,0.75,0.7537,0.7546,0.7566,0.7585,0.7599,0.7607,0.7606,0.7607,0.7606,0.7633,0.7627,0.7629,0.7616,0.7617,0.7617,0.7631,0,0.7248,0.729,0.7316,0.7348,0.7372,0.7397,0.7417,0.7445,0.7467,0.749,0.7514,0.7541,0.755,0.7562,0.7577,0.7602,0.7613,0.7602,0.7637,0.7638,0.7629,0.7631,0.7625,0.7636,0.7633,0.7633,0.7634,0,0.726,0.7288,0.7323,0.7363,0.7373,0.7391,0.7425,0.7447,0.7479,0.7494,0.7517,0.7536,0.7563,0.7566,0.7604,0.7596,0.7612,0.7627,0.7628,0.7633,0.7636,0.7638,0.764,0.7642,0.7637,0.7637,0.7636,0,0.7245,0.7292,0.7319,0.7334,0.7381,0.7393,0.7413,0.7446,0.7465,0.7494,0.7507,0.7538,0.7556,0.758,0.7608,0.7608,0.7643,0.7648,0.7657,0.7656,0.7664,0.7663,0.767,0.7672,0.7672,0.7672,0.7672,0,0.725,0.727,0.7313,0.733,0.7354,0.7384,0.7408,0.743,0.7459,0.7481,0.7505,0.7525,0.756,0.7585,0.7607,0.7636,0.7643,0.7656,0.7662,0.7655,0.7653,0.7666,0.7667,0.7673,0.7673,0.7672,0.7672,0,0.7237,0.7267,0.7298,0.7341,0.7352,0.7368,0.7404,0.7422,0.7445,0.7473,0.7482,0.7518,0.7549,0.7579,0.762,0.7635,0.7664,0.7671,0.7653,0.7657,0.7664,0.7663,0.768,0.7685,0.7683,0.7683,0.7683,0,0.7238,0.7255,0.7299,0.7316,0.7336,0.7362,0.7382,0.7413,0.7432,0.7472,0.7485,0.7518,0.7546,0.7594,0.7624,0.7656,0.7665,0.7669,0.767,0.7663,0.7667,0.7666,0.7668,0.7668,0.7668,0.7668,0.7668,0,0.7238,0.7252,0.7279,0.7312,0.7335,0.7363,0.7391,0.7403,0.744,0.746,0.7493,0.7514,0.7557,0.759,0.7626,0.7647,0.7664,0.7667,0.7671,0.7664,0.7654,0.7661,0.7652,0.7667,0.7667,0.7667,0.7667,0.7667,0.7234,0.725,0.7284,0.7315,0.7339,0.7365,0.7385,0.7411,0.7438,0.7476,0.7492,0.7525,0.7559,0.7609,0.763,0.7657,0.7661,0.7666,0.7668,0.7669,0.7668,0.7649,0.7663,0.7664,0.7664,0.7664,0.7664,0,0.7235,0.7259,0.7286,0.7326,0.735,0.7364,0.7396,0.7415,0.7444,0.7474,0.7502,0.754,0.7572,0.7605,0.764,0.7655,0.7663,0.7663,0.7662,0.7667,0.7662,0.7656,0.7655,0.7655,0.7655,0.7655,0.7655,0.7655,0.7239,0.7269,0.7287,0.733,0.7353,0.7386,0.7404,0.7428,0.7453,0.7494,0.7521,0.7543,0.7575,0.7612,0.7643,0.7652,0.7664,0.7661,0.7673,0.7667,0.7668,0.7668,0.7662,0.7664,0.7664,0.7677,0.7677,0.7677]}]]